Weather History for Oceanside Mcolf Camp Pendleto, CA

Change the Weather History Date:

Sunday, April 27, 2014

  Actual Average Record
Temperature  
Mean Temperature 60 °F -  
Max Temperature 69 °F - - ()
Min Temperature 54 °F - - ()
Degree Days  
Heating Degree Days 4    
Growing Degree Days 10 (Base 50)    
Moisture  
Dew Point 48 °F    
Average Humidity 65    
Maximum Humidity 75    
Minimum Humidity 52    
Precipitation  
Precipitation 0.00 in - - ()
Sea Level Pressure  
Sea Level Pressure 30.21 in    
Wind  
Wind Speed 7 mph (NW)    
Max Wind Speed 17 mph    
Max Gust Speed -    
Visibility 8 miles    
Events      
T = Trace of Precipitation, MM = Missing Value Source: NWS Daily Summary

Daily Weather History Graph

Daily Weather History Graph

Search for Another Location

Airport:

Trip Planner

Search our weather history database for the weather conditions in past years. The results will help you decide how hot, cold, wet, or windy it might be!

Date:

Astronomy

Apr. 27, 2014 Rise Set
Actual Time 6:05 AM PDT 7:29 PM PDT
Civil Twilight 5:39 AM PDT 7:55 PM PDT
Nautical Twilight 5:08 AM PDT 8:27 PM PDT
Astronomical Twilight 4:35 AM PDT 8:59 PM PDT
Moon 5:03 AM PDT (4/27) 6:12 PM PDT (4/27)
Length of Visible Light 14h 16m
Length of Day
13h 23m
Waning Crescent, 3% of the Moon is Illuminated
Apr 27
Waning Crescent
Apr 28
New
May 6
First Quarter
May 14
Full
May 21
Last Quarter

Hourly Weather History & Observations

Time (PDT) Temp. Dew Point Humidity Pressure Visibility Wind Dir Wind Speed Gust Speed Precip Events Conditions
12:18 AM 59.0 °F 48.9 °F 69% 30.02 in 7.0 mi WSW 5.8 mph - N/A   Overcast
12:56 AM 59.0 °F 48.0 °F 67% 30.27 in 7.0 mi West 5.8 mph - N/A   Mostly Cloudy
1:56 AM 57.0 °F 48.0 °F 72% 30.25 in 8.0 mi ENE 6.9 mph - N/A   Overcast
2:32 AM 57.0 °F 48.0 °F 72% 29.98 in 8.0 mi East 5.8 mph - N/A   Overcast
2:56 AM 55.9 °F 46.9 °F 72% 30.23 in 8.0 mi ENE 3.5 mph - N/A   Mostly Cloudy
3:09 AM 55.9 °F 46.9 °F 72% 29.98 in 8.0 mi NE 3.5 mph - N/A   Mostly Cloudy
3:56 AM 55.9 °F 46.9 °F 72% 30.24 in 8.0 mi ENE 3.5 mph - N/A   Overcast
4:56 AM 57.0 °F 46.9 °F 69% 30.23 in 9.0 mi ENE 4.6 mph - N/A   Overcast
5:25 AM 57.0 °F 46.9 °F 69% 29.97 in 9.0 mi North - - N/A   Overcast
5:56 AM 57.0 °F 46.9 °F 69% 30.22 in 9.0 mi ENE 5.8 mph - N/A   Overcast
6:56 AM 57.0 °F 46.9 °F 69% 30.23 in 7.0 mi East 6.9 mph - N/A   Scattered Clouds
7:56 AM 60.1 °F 46.0 °F 60% 30.27 in 8.0 mi East 5.8 mph - N/A   Partly Cloudy
8:56 AM 62.1 °F 46.0 °F 56% 30.27 in 7.0 mi South 9.2 mph - N/A   Scattered Clouds
9:56 AM 63.0 °F 46.0 °F 54% 30.27 in 8.0 mi South 9.2 mph - N/A   Clear
10:56 AM 64.0 °F 48.0 °F 56% 30.27 in 7.0 mi South 10.4 mph - N/A   Clear
11:56 AM 66.0 °F 48.9 °F 54% 30.27 in 7.0 mi SW 11.5 mph - N/A   Clear
12:56 PM 66.9 °F 48.9 °F 52% 30.27 in 8.0 mi West 11.5 mph - N/A   Clear
1:56 PM 66.9 °F 48.9 °F 52% 30.26 in 8.0 mi West 12.7 mph - N/A   Clear
2:56 PM 66.9 °F 48.9 °F 52% 30.25 in 8.0 mi West 12.7 mph - N/A   Clear
3:56 PM 66.9 °F 50.0 °F 54% 30.23 in 7.0 mi West 15.0 mph - N/A   Clear
4:56 PM 66.0 °F 51.1 °F 59% 30.22 in 6.0 mi WNW 17.3 mph - N/A   Haze
5:56 PM 64.0 °F 52.0 °F 65% 30.22 in 6.0 mi WNW 15.0 mph - N/A   Haze
6:56 PM 62.1 °F 48.9 °F 62% 30.22 in 7.0 mi WNW 15.0 mph - N/A   Clear
7:56 PM 60.1 °F 51.1 °F 72% 30.24 in 8.0 mi West 6.9 mph - N/A   Clear
8:56 PM 60.1 °F 51.1 °F 72% 30.26 in 7.0 mi WNW 3.5 mph - N/A   Clear
9:56 PM 57.9 °F 50.0 °F 75% 30.27 in 5.0 mi WNW 5.8 mph - N/A   Haze
10:56 PM 55.9 °F 46.0 °F 69% 30.27 in 8.0 mi NNE 3.5 mph - N/A   Clear
11:56 PM 54.0 °F 45.0 °F 72% 30.27 in 10.0 mi NE 6.9 mph - N/A   Clear